contact:dominique.lefevre@mio.osupytheas.fr, maurice.libes@osupytheas.fr, didier.mallarino@osupytheas.fr
Project:EMSO http://www.emso-fr.org/EMSO-France
Depth: 2436.0 m
Title:EMSO Ligure Ouest : Data MII capteur MICROCAT
DateTime_Computer,Latitude,Longitude,Temperature,Conductivity,Pressure,DateTime_Instrument
DateTime_Computer,Latitude,Longitude,degC,S m-1,dbar,DateTime_Instrument
2022-05-31T00:01:34Z,42.805,6.029,13.3009,4.60074,2470.646,2022-5-31T02:03:16Z
2022-05-31T00:04:37Z,42.805,6.029,13.3017,4.60062,2470.67,2022-5-31T02:06:19Z
2022-05-31T00:07:40Z,42.805,6.029,13.3008,4.60078,2470.684,2022-5-31T02:09:22Z
2022-05-31T00:10:43Z,42.805,6.029,13.3014,4.60057,2470.684,2022-5-31T02:12:25Z
2022-05-31T00:13:46Z,42.805,6.029,13.3011,4.60086,2470.661,2022-5-31T02:15:28Z
2022-05-31T00:16:49Z,42.805,6.029,13.3015,4.60088,2470.661,2022-5-31T02:18:31Z
2022-05-31T00:19:52Z,42.805,6.029,13.3009,4.60062,2470.67,2022-5-31T02:21:34Z
2022-05-31T00:22:55Z,42.805,6.029,13.3008,4.60089,2470.646,2022-5-31T02:24:37Z
2022-05-31T00:25:58Z,42.805,6.029,13.3015,4.60083,2470.684,2022-5-31T02:27:41Z
2022-05-31T00:29:02Z,42.805,6.029,13.3008,4.60056,2470.624,2022-5-31T02:30:44Z
2022-05-31T00:32:05Z,42.805,6.029,13.3003,4.60074,2470.661,2022-5-31T02:33:47Z
2022-05-31T00:35:08Z,42.805,6.029,13.3014,4.60070,2470.661,2022-5-31T02:36:50Z
2022-05-31T00:38:11Z,42.805,6.029,13.3017,4.60096,2470.637,2022-5-31T02:39:53Z
2022-05-31T00:41:14Z,42.805,6.029,13.3011,4.60062,2470.6,2022-5-31T02:42:56Z
2022-05-31T00:44:17Z,42.805,6.029,13.3017,4.60070,2470.661,2022-5-31T02:45:59Z
2022-05-31T00:47:20Z,42.805,6.029,13.3008,4.60060,2470.646,2022-5-31T02:49:02Z
2022-05-31T00:50:23Z,42.805,6.029,13.3011,4.60087,2470.646,2022-5-31T02:52:06Z
2022-05-31T00:53:27Z,42.805,6.029,13.3021,4.60103,2470.646,2022-5-31T02:55:09Z
2022-05-31T00:56:30Z,42.805,6.029,13.3025,4.60093,2470.614,2022-5-31T02:58:12Z
2022-05-31T00:59:33Z,42.805,6.029,13.3013,4.60103,2470.624,2022-5-31T03:01:15Z
2022-05-31T01:02:36Z,42.805,6.029,13.3006,4.60087,2470.624,2022-5-31T03:04:18Z
2022-05-31T01:05:39Z,42.805,6.029,13.3016,4.60082,2470.624,2022-5-31T03:07:21Z
2022-05-31T01:08:42Z,42.805,6.029,13.3009,4.60073,2470.661,2022-5-31T03:10:24Z
2022-05-31T01:11:45Z,42.805,6.029,13.3022,4.60085,2470.624,2022-5-31T03:13:27Z
2022-05-31T01:14:48Z,42.805,6.029,13.3015,4.60094,2470.6,2022-5-31T03:16:31Z
2022-05-31T01:17:52Z,42.805,6.029,13.3020,4.60074,2470.637,2022-5-31T03:19:34Z
2022-05-31T01:20:55Z,42.805,6.029,13.3008,4.60084,2470.637,2022-5-31T03:22:37Z
2022-05-31T01:23:58Z,42.805,6.029,13.3005,4.60070,2470.624,2022-5-31T03:25:40Z
2022-05-31T01:27:01Z,42.805,6.029,13.3010,4.60096,2470.661,2022-5-31T03:28:43Z
2022-05-31T01:30:04Z,42.805,6.029,13.3014,4.60092,2470.646,2022-5-31T03:31:46Z
2022-05-31T01:33:07Z,42.805,6.029,13.3011,4.60132,2470.624,2022-5-31T03:34:49Z
2022-05-31T01:36:10Z,42.805,6.029,13.3012,4.60074,2470.661,2022-5-31T03:37:52Z
2022-05-31T01:39:13Z,42.805,6.029,13.3016,4.60092,2470.661,2022-5-31T03:40:55Z
2022-05-31T01:42:17Z,42.805,6.029,13.3021,4.60112,2470.6,2022-5-31T03:43:59Z
2022-05-31T01:45:20Z,42.805,6.029,13.3014,4.60063,2470.661,2022-5-31T03:47:02Z
2022-05-31T01:48:23Z,42.805,6.029,13.3009,4.60079,2470.6,2022-5-31T03:50:05Z
2022-05-31T01:51:26Z,42.805,6.029,13.3022,4.60084,2470.624,2022-5-31T03:53:08Z
2022-05-31T01:54:29Z,42.805,6.029,13.3023,4.60084,2470.637,2022-5-31T03:56:11Z
2022-05-31T01:57:32Z,42.805,6.029,13.3020,4.60110,2470.624,2022-5-31T03:59:14Z
2022-05-31T02:00:35Z,42.805,6.029,13.3023,4.60072,2470.6,2022-5-31T04:02:17Z
2022-05-31T02:03:38Z,42.805,6.029,13.3010,4.60079,2470.6,2022-5-31T04:05:20Z
2022-05-31T02:06:41Z,42.805,6.029,13.3006,4.60074,2470.624,2022-5-31T04:08:24Z
2022-05-31T02:09:45Z,42.805,6.029,13.3009,4.60074,2470.624,2022-5-31T04:11:27Z
2022-05-31T02:12:48Z,42.805,6.029,13.3017,4.60096,2470.661,2022-5-31T04:14:30Z
2022-05-31T02:15:51Z,42.805,6.029,13.3010,4.60097,2470.6,2022-5-31T04:17:33Z
2022-05-31T02:18:54Z,42.805,6.029,13.3007,4.60081,2470.637,2022-5-31T04:20:36Z
2022-05-31T02:21:57Z,42.805,6.029,13.3013,4.60084,2470.577,2022-5-31T04:23:39Z
2022-05-31T02:25:00Z,42.805,6.029,13.3004,4.60047,2470.637,2022-5-31T04:26:42Z
2022-05-31T02:28:03Z,42.805,6.029,13.3009,4.60081,2470.661,2022-5-31T04:29:45Z
2022-05-31T02:31:06Z,42.805,6.029,13.3017,4.60080,2470.591,2022-5-31T04:32:49Z
2022-05-31T02:34:10Z,42.805,6.029,13.3003,4.60058,2470.637,2022-5-31T04:35:52Z
2022-05-31T02:37:13Z,42.805,6.029,13.3019,4.60103,2470.6,2022-5-31T04:38:55Z
2022-05-31T02:40:16Z,42.805,6.029,13.3015,4.60067,2470.6,2022-5-31T04:41:58Z
2022-05-31T02:43:19Z,42.805,6.029,13.3023,4.60077,2470.637,2022-5-31T04:45:01Z
2022-05-31T02:46:22Z,42.805,6.029,13.3017,4.60080,2470.6,2022-5-31T04:48:04Z
2022-05-31T02:49:25Z,42.805,6.029,13.3016,4.60072,2470.6,2022-5-31T04:51:07Z
2022-05-31T02:52:28Z,42.805,6.029,13.3032,4.60081,2470.6,2022-5-31T04:54:10Z
2022-05-31T02:55:31Z,42.805,6.029,13.3019,4.60070,2470.6,2022-5-31T04:57:14Z
2022-05-31T02:58:35Z,42.805,6.029,13.3009,4.60080,2470.6,2022-5-31T05:00:17Z
2022-05-31T03:01:38Z,42.805,6.029,13.3026,4.60078,2470.614,2022-5-31T05:03:20Z
2022-05-31T03:04:41Z,42.805,6.029,13.3009,4.60064,2470.6,2022-5-31T05:06:23Z
2022-05-31T03:07:44Z,42.805,6.029,13.3014,4.60088,2470.6,2022-5-31T05:09:26Z
2022-05-31T03:10:47Z,42.805,6.029,13.3011,4.60073,2470.591,2022-5-31T05:12:29Z
2022-05-31T03:13:50Z,42.805,6.029,13.3024,4.60081,2470.614,2022-5-31T05:15:32Z
2022-05-31T03:16:53Z,42.805,6.029,13.3009,4.60076,2470.577,2022-5-31T05:18:35Z
2022-05-31T03:19:56Z,42.805,6.029,13.3014,4.60064,2470.624,2022-5-31T05:21:38Z
2022-05-31T03:22:59Z,42.805,6.029,13.3021,4.60074,2470.624,2022-5-31T05:24:42Z
2022-05-31T03:26:03Z,42.805,6.029,13.3013,4.60061,2470.614,2022-5-31T05:27:45Z
2022-05-31T03:29:06Z,42.805,6.029,13.3006,4.60057,2470.6,2022-5-31T05:30:48Z
2022-05-31T03:32:09Z,42.805,6.029,13.3009,4.60048,2470.637,2022-5-31T05:33:51Z
2022-05-31T03:35:12Z,42.805,6.029,13.3015,4.60049,2470.614,2022-5-31T05:36:54Z
2022-05-31T03:38:15Z,42.805,6.029,13.3014,4.60059,2470.637,2022-5-31T05:39:57Z
2022-05-31T03:41:18Z,42.805,6.029,13.3009,4.60051,2470.577,2022-5-31T05:43:00Z
2022-05-31T03:44:21Z,42.805,6.029,13.3010,4.60052,2470.661,2022-5-31T05:46:03Z
2022-05-31T03:47:24Z,42.805,6.029,13.3007,4.60057,2470.614,2022-5-31T05:49:07Z
2022-05-31T03:50:28Z,42.805,6.029,13.3004,4.60052,2470.614,2022-5-31T05:52:10Z
2022-05-31T03:53:31Z,42.805,6.029,13.3012,4.60064,2470.646,2022-5-31T05:55:13Z
2022-05-31T03:56:34Z,42.805,6.029,13.3009,4.60048,2470.591,2022-5-31T05:58:16Z
2022-05-31T03:59:37Z,42.805,6.029,13.3009,4.60053,2470.646,2022-5-31T06:01:19Z
2022-05-31T04:02:40Z,42.805,6.029,13.3005,4.60057,2470.637,2022-5-31T06:04:22Z
2022-05-31T04:05:43Z,42.805,6.029,13.3009,4.60060,2470.61,2022-5-31T06:07:25Z
2022-05-31T04:08:46Z,42.805,6.029,13.3009,4.60077,2470.637,2022-5-31T06:10:28Z
2022-05-31T04:11:49Z,42.805,6.029,13.3013,4.60080,2470.624,2022-5-31T06:13:32Z
2022-05-31T04:14:53Z,42.805,6.029,13.3006,4.60045,2470.624,2022-5-31T06:16:35Z
2022-05-31T04:17:56Z,42.805,6.029,13.3006,4.60069,2470.646,2022-5-31T06:19:38Z
2022-05-31T04:20:59Z,42.805,6.029,13.3014,4.60063,2470.624,2022-5-31T06:22:41Z
2022-05-31T04:24:02Z,42.805,6.029,13.3007,4.60060,2470.614,2022-5-31T06:25:44Z
2022-05-31T04:27:05Z,42.805,6.029,13.3014,4.60055,2470.661,2022-5-31T06:28:47Z
2022-05-31T04:30:08Z,42.805,6.029,13.3004,4.60050,2470.646,2022-5-31T06:31:50Z
2022-05-31T04:33:11Z,42.805,6.029,13.3016,4.60062,2470.624,2022-5-31T06:34:53Z
2022-05-31T04:36:14Z,42.805,6.029,13.3009,4.60053,2470.646,2022-5-31T06:37:57Z
2022-05-31T04:39:18Z,42.805,6.029,13.3012,4.60058,2470.637,2022-5-31T06:41:00Z
2022-05-31T04:42:21Z,42.805,6.029,13.3014,4.60077,2470.67,2022-5-31T06:44:03Z
2022-05-31T04:45:24Z,42.805,6.029,13.3014,4.60063,2470.684,2022-5-31T06:47:06Z
2022-05-31T04:48:27Z,42.805,6.029,13.3009,4.60058,2470.684,2022-5-31T06:50:09Z
2022-05-31T04:51:30Z,42.805,6.029,13.3015,4.60072,2470.707,2022-5-31T06:53:12Z
2022-05-31T04:54:33Z,42.805,6.029,13.3014,4.60060,2470.67,2022-5-31T06:56:15Z
2022-05-31T04:57:36Z,42.805,6.029,13.3011,4.60051,2470.67,2022-5-31T06:59:18Z
2022-05-31T05:00:39Z,42.805,6.029,13.3005,4.60057,2470.684,2022-5-31T07:02:22Z
2022-05-31T05:03:43Z,42.805,6.029,13.3014,4.60071,2470.693,2022-5-31T07:05:25Z
2022-05-31T05:06:46Z,42.805,6.029,13.3006,4.60050,2470.67,2022-5-31T07:08:28Z
2022-05-31T05:09:49Z,42.805,6.029,13.3011,4.60061,2470.67,2022-5-31T07:11:31Z
2022-05-31T05:12:52Z,42.805,6.029,13.3006,4.60051,2470.693,2022-5-31T07:14:34Z
2022-05-31T05:15:55Z,42.805,6.029,13.3009,4.60060,2470.684,2022-5-31T07:17:37Z
2022-05-31T05:18:58Z,42.805,6.029,13.3007,4.60049,2470.684,2022-5-31T07:20:40Z
2022-05-31T05:22:01Z,42.805,6.029,13.3013,4.60052,2470.67,2022-5-31T07:23:43Z
2022-05-31T05:25:04Z,42.805,6.029,13.3015,4.60062,2470.67,2022-5-31T07:26:46Z
2022-05-31T05:28:07Z,42.805,6.029,13.3015,4.60067,2470.707,2022-5-31T07:29:50Z
2022-05-31T05:31:11Z,42.805,6.029,13.3004,4.60064,2470.707,2022-5-31T07:32:53Z
2022-05-31T05:34:14Z,42.805,6.029,13.3021,4.60046,2470.67,2022-5-31T07:35:56Z
2022-05-31T05:37:17Z,42.805,6.029,13.3008,4.60052,2470.693,2022-5-31T07:38:59Z
2022-05-31T05:40:20Z,42.805,6.029,13.3009,4.60053,2470.707,2022-5-31T07:42:02Z
2022-05-31T05:43:23Z,42.805,6.029,13.3015,4.60067,2470.67,2022-5-31T07:45:05Z
2022-05-31T05:46:26Z,42.805,6.029,13.3005,4.60051,2470.693,2022-5-31T07:48:08Z
2022-05-31T05:49:29Z,42.805,6.029,13.3010,4.60057,2470.684,2022-5-31T07:51:11Z
2022-05-31T05:52:32Z,42.805,6.029,13.3009,4.60057,2470.717,2022-5-31T07:54:15Z
2022-05-31T05:55:36Z,42.805,6.029,13.3015,4.60062,2470.717,2022-5-31T07:57:18Z
2022-05-31T05:58:39Z,42.805,6.029,13.3016,4.60067,2470.67,2022-5-31T08:00:21Z
2022-05-31T06:01:42Z,42.805,6.029,13.3009,4.60069,2470.717,2022-5-31T08:03:24Z
2022-05-31T06:04:45Z,42.805,6.029,13.3014,4.60078,2470.693,2022-5-31T08:06:27Z
2022-05-31T06:07:48Z,42.805,6.029,13.3014,4.60067,2470.73,2022-5-31T08:09:30Z
2022-05-31T06:10:51Z,42.805,6.029,13.3006,4.60059,2470.73,2022-5-31T08:12:33Z
2022-05-31T06:13:54Z,42.805,6.029,13.3015,4.60059,2470.693,2022-5-31T08:15:36Z
2022-05-31T06:16:57Z,42.805,6.029,13.3009,4.60054,2470.717,2022-5-31T08:18:40Z
2022-05-31T06:20:01Z,42.805,6.029,13.3006,4.60052,2470.707,2022-5-31T08:21:43Z
2022-05-31T06:23:04Z,42.805,6.029,13.3009,4.60053,2470.717,2022-5-31T08:24:46Z
2022-05-31T06:26:07Z,42.805,6.029,13.3011,4.60054,2470.73,2022-5-31T08:27:49Z
2022-05-31T06:29:10Z,42.805,6.029,13.3021,4.60084,2470.693,2022-5-31T08:30:52Z
2022-05-31T06:32:13Z,42.805,6.029,13.3006,4.60061,2470.717,2022-5-31T08:33:55Z
2022-05-31T06:35:16Z,42.805,6.029,13.3011,4.60067,2470.717,2022-5-31T08:36:58Z
2022-05-31T06:38:19Z,42.805,6.029,13.3014,4.60094,2470.717,2022-5-31T08:40:01Z
2022-05-31T06:41:22Z,42.805,6.029,13.3017,4.60095,2470.693,2022-5-31T08:43:05Z
2022-05-31T06:44:25Z,42.805,6.029,13.3016,4.60075,2470.707,2022-5-31T08:46:08Z
2022-05-31T06:47:29Z,42.805,6.029,13.3011,4.60077,2470.707,2022-5-31T08:49:11Z
2022-05-31T06:50:32Z,42.805,6.029,13.3015,4.60088,2470.717,2022-5-31T08:52:14Z
2022-05-31T06:53:35Z,42.805,6.029,13.3005,4.60059,2470.707,2022-5-31T08:55:17Z
2022-05-31T06:56:38Z,42.805,6.029,13.3007,4.60069,2470.74,2022-5-31T08:58:20Z
2022-05-31T06:59:41Z,42.805,6.029,13.3014,4.60070,2470.754,2022-5-31T09:01:23Z
2022-05-31T07:02:44Z,42.805,6.029,13.3014,4.60067,2470.73,2022-5-31T09:04:26Z
2022-05-31T07:05:47Z,42.805,6.029,13.3007,4.60054,2470.717,2022-5-31T09:07:29Z
2022-05-31T07:08:50Z,42.805,6.029,13.3011,4.60063,2470.693,2022-5-31T09:10:33Z
2022-05-31T07:11:54Z,42.805,6.029,13.3008,4.60075,2470.73,2022-5-31T09:13:36Z
2022-05-31T07:14:57Z,42.805,6.029,13.3010,4.60055,2470.73,2022-5-31T09:16:39Z
2022-05-31T07:18:00Z,42.805,6.029,13.3010,4.60051,2470.717,2022-5-31T09:19:42Z
2022-05-31T07:21:03Z,42.805,6.029,13.3005,4.60056,2470.74,2022-5-31T09:22:45Z
2022-05-31T07:24:06Z,42.805,6.029,13.3009,4.60072,2470.74,2022-5-31T09:25:48Z
2022-05-31T07:27:09Z,42.805,6.029,13.3014,4.60077,2470.73,2022-5-31T09:28:51Z
2022-05-31T07:30:12Z,42.805,6.029,13.3018,4.60080,2470.717,2022-5-31T09:31:54Z
2022-05-31T07:33:15Z,42.805,6.029,13.3011,4.60068,2470.717,2022-5-31T09:34:58Z
2022-05-31T07:36:19Z,42.805,6.029,13.3009,4.60053,2470.717,2022-5-31T09:38:01Z
2022-05-31T07:39:22Z,42.805,6.029,13.3011,4.60050,2470.717,2022-5-31T09:41:04Z
2022-05-31T07:42:25Z,42.805,6.029,13.3011,4.60069,2470.717,2022-5-31T09:44:07Z
2022-05-31T07:45:28Z,42.805,6.029,13.3015,4.60064,2470.717,2022-5-31T09:47:10Z
2022-05-31T07:48:31Z,42.805,6.029,13.3011,4.60062,2470.73,2022-5-31T09:50:13Z
2022-05-31T07:51:34Z,42.805,6.029,13.3006,4.60060,2470.717,2022-5-31T09:53:16Z
2022-05-31T07:54:37Z,42.805,6.029,13.3014,4.60082,2470.703,2022-5-31T09:56:19Z
2022-05-31T07:57:40Z,42.805,6.029,13.3010,4.60079,2470.693,2022-5-31T09:59:23Z
2022-05-31T08:00:44Z,42.805,6.029,13.3014,4.60062,2470.717,2022-5-31T10:02:26Z
2022-05-31T08:03:47Z,42.805,6.029,13.3009,4.60057,2470.693,2022-5-31T10:05:29Z
2022-05-31T08:06:50Z,42.805,6.029,13.3009,4.60055,2470.717,2022-5-31T10:08:32Z
2022-05-31T08:09:53Z,42.805,6.029,13.3007,4.60056,2470.707,2022-5-31T10:11:35Z
2022-05-31T08:12:56Z,42.805,6.029,13.3006,4.60072,2470.73,2022-5-31T10:14:38Z
2022-05-31T08:15:59Z,42.805,6.029,13.3007,4.60049,2470.693,2022-5-31T10:17:41Z
2022-05-31T08:19:02Z,42.805,6.029,13.3014,4.60060,2470.693,2022-5-31T10:20:44Z
2022-05-31T08:22:05Z,42.805,6.029,13.3007,4.60069,2470.717,2022-5-31T10:23:48Z
2022-05-31T08:25:09Z,42.805,6.029,13.3015,4.60061,2470.693,2022-5-31T10:26:51Z
2022-05-31T08:28:12Z,42.805,6.029,13.3008,4.60067,2470.67,2022-5-31T10:29:54Z
2022-05-31T08:31:15Z,42.805,6.029,13.3011,4.60060,2470.717,2022-5-31T10:32:57Z
2022-05-31T08:34:18Z,42.805,6.029,13.3014,4.60054,2470.693,2022-5-31T10:36:00Z
2022-05-31T08:37:21Z,42.805,6.029,13.3019,4.60064,2470.693,2022-5-31T10:39:03Z
2022-05-31T08:40:24Z,42.805,6.029,13.3014,4.60072,2470.707,2022-5-31T10:42:06Z
2022-05-31T08:43:27Z,42.805,6.029,13.3011,4.60063,2470.73,2022-5-31T10:45:09Z
2022-05-31T08:46:30Z,42.805,6.029,13.3009,4.60058,2470.717,2022-5-31T10:48:13Z
2022-05-31T08:49:34Z,42.805,6.029,13.3008,4.60067,2470.717,2022-5-31T10:51:16Z
2022-05-31T08:52:37Z,42.805,6.029,13.3006,4.60059,2470.717,2022-5-31T10:54:19Z
2022-05-31T08:55:40Z,42.805,6.029,13.3009,4.60065,2470.67,2022-5-31T10:57:22Z
2022-05-31T08:58:43Z,42.805,6.029,13.3009,4.60069,2470.707,2022-5-31T11:00:25Z
2022-05-31T09:01:46Z,42.805,6.029,13.3013,4.60089,2470.717,2022-5-31T11:03:28Z
2022-05-31T09:04:49Z,42.805,6.029,13.3010,4.60071,2470.67,2022-5-31T11:06:31Z
2022-05-31T09:07:52Z,42.805,6.029,13.3009,4.60053,2470.693,2022-5-31T11:09:34Z
2022-05-31T09:10:55Z,42.805,6.029,13.3028,4.60079,2470.707,2022-5-31T11:12:38Z
2022-05-31T09:13:59Z,42.805,6.029,13.3007,4.60076,2470.693,2022-5-31T11:15:41Z
2022-05-31T09:17:02Z,42.805,6.029,13.3023,4.60080,2470.693,2022-5-31T11:18:44Z
2022-05-31T09:20:05Z,42.805,6.029,13.3024,4.60074,2470.646,2022-5-31T11:21:47Z
2022-05-31T09:23:08Z,42.805,6.029,13.3016,4.60078,2470.707,2022-5-31T11:24:50Z
2022-05-31T09:26:11Z,42.805,6.029,13.3021,4.60099,2470.684,2022-5-31T11:27:53Z
2022-05-31T09:29:14Z,42.805,6.029,13.3009,4.60066,2470.684,2022-5-31T11:30:56Z
2022-05-31T09:32:17Z,42.805,6.029,13.3015,4.60074,2470.67,2022-5-31T11:33:59Z
2022-05-31T09:35:20Z,42.805,6.029,13.3010,4.60057,2470.693,2022-5-31T11:37:03Z
2022-05-31T09:38:24Z,42.805,6.029,13.3008,4.60051,2470.67,2022-5-31T11:40:06Z
2022-05-31T09:41:27Z,42.805,6.029,13.3013,4.60080,2470.693,2022-5-31T11:43:09Z
2022-05-31T09:44:30Z,42.805,6.029,13.3018,4.60069,2470.646,2022-5-31T11:46:12Z
2022-05-31T09:47:33Z,42.805,6.029,13.3021,4.60072,2470.684,2022-5-31T11:49:15Z
2022-05-31T09:50:36Z,42.805,6.029,13.3013,4.60071,2470.646,2022-5-31T11:52:18Z
2022-05-31T09:53:39Z,42.805,6.029,13.3014,4.60084,2470.661,2022-5-31T11:55:21Z
2022-05-31T09:56:42Z,42.805,6.029,13.3019,4.60072,2470.67,2022-5-31T11:58:24Z
2022-05-31T09:59:45Z,42.805,6.029,13.3023,4.60075,2470.646,2022-5-31T12:01:28Z
2022-05-31T10:02:49Z,42.805,6.029,13.3009,4.60080,2470.646,2022-5-31T12:04:31Z
2022-05-31T10:05:52Z,42.805,6.029,13.3011,4.60066,2470.67,2022-5-31T12:07:34Z
2022-05-31T10:08:55Z,42.805,6.029,13.3014,4.60070,2470.684,2022-5-31T12:10:37Z
2022-05-31T10:11:58Z,42.805,6.029,13.3013,4.60110,2470.646,2022-5-31T12:13:40Z
2022-05-31T10:15:01Z,42.805,6.029,13.3009,4.60064,2470.624,2022-5-31T12:16:43Z
2022-05-31T10:18:04Z,42.805,6.029,13.3014,4.60082,2470.67,2022-5-31T12:19:46Z
2022-05-31T10:21:07Z,42.805,6.029,13.3009,4.60087,2470.646,2022-5-31T12:22:49Z
2022-05-31T10:24:10Z,42.805,6.029,13.3017,4.60084,2470.624,2022-5-31T12:25:53Z
2022-05-31T10:27:14Z,42.805,6.029,13.3011,4.60084,2470.646,2022-5-31T12:28:56Z
2022-05-31T10:30:17Z,42.805,6.029,13.3011,4.60093,2470.646,2022-5-31T12:31:59Z
2022-05-31T10:33:20Z,42.805,6.029,13.3011,4.60081,2470.637,2022-5-31T12:35:02Z
2022-05-31T10:36:23Z,42.805,6.029,13.3006,4.60079,2470.646,2022-5-31T12:38:05Z
2022-05-31T10:39:26Z,42.805,6.029,13.3018,4.60072,2470.646,2022-5-31T12:41:08Z
2022-05-31T10:42:29Z,42.805,6.029,13.3013,4.60081,2470.624,2022-5-31T12:44:11Z
2022-05-31T10:45:32Z,42.805,6.029,13.3015,4.60068,2470.624,2022-5-31T12:47:15Z
2022-05-31T10:48:35Z,42.805,6.029,13.3011,4.60080,2470.6,2022-5-31T12:50:18Z
2022-05-31T10:51:39Z,42.805,6.029,13.3009,4.60062,2470.661,2022-5-31T12:53:21Z
2022-05-31T10:54:42Z,42.805,6.029,13.3024,4.60072,2470.646,2022-5-31T12:56:24Z
2022-05-31T10:57:45Z,42.805,6.029,13.3019,4.60080,2470.637,2022-5-31T12:59:27Z
2022-05-31T11:00:48Z,42.805,6.029,13.3014,4.60085,2470.646,2022-5-31T13:02:30Z
2022-05-31T11:03:51Z,42.805,6.029,13.3013,4.60078,2470.637,2022-5-31T13:05:33Z
2022-05-31T11:06:54Z,42.805,6.029,13.3010,4.60082,2470.661,2022-5-31T13:08:36Z
2022-05-31T11:09:57Z,42.805,6.029,13.3017,4.60080,2470.624,2022-5-31T13:11:40Z
2022-05-31T11:13:01Z,42.805,6.029,13.3015,4.60087,2470.624,2022-5-31T13:14:43Z
2022-05-31T11:16:04Z,42.805,6.029,13.3014,4.60069,2470.614,2022-5-31T13:17:46Z
2022-05-31T11:19:07Z,42.805,6.029,13.3012,4.60092,2470.624,2022-5-31T13:20:49Z
2022-05-31T11:22:10Z,42.805,6.029,13.3014,4.60074,2470.577,2022-5-31T13:23:52Z
2022-05-31T11:25:13Z,42.805,6.029,13.3010,4.60074,2470.591,2022-5-31T13:26:55Z
2022-05-31T11:28:16Z,42.805,6.029,13.3010,4.60072,2470.577,2022-5-31T13:29:58Z
2022-05-31T11:31:19Z,42.805,6.029,13.3019,4.60059,2470.591,2022-5-31T13:33:01Z
2022-05-31T11:34:22Z,42.805,6.029,13.3020,4.60064,2470.614,2022-5-31T13:36:05Z
2022-05-31T11:37:26Z,42.805,6.029,13.3017,4.60068,2470.553,2022-5-31T13:39:08Z
2022-05-31T11:40:29Z,42.805,6.029,13.3014,4.60057,2470.567,2022-5-31T13:42:11Z
2022-05-31T11:43:32Z,42.805,6.029,13.3007,4.60057,2470.591,2022-5-31T13:45:14Z
2022-05-31T11:46:35Z,42.805,6.029,13.3013,4.60075,2470.6,2022-5-31T13:48:17Z
2022-05-31T11:49:38Z,42.805,6.029,13.3014,4.60063,2470.577,2022-5-31T13:51:20Z
2022-05-31T11:52:41Z,42.805,6.029,13.3018,4.60080,2470.577,2022-5-31T13:54:23Z
2022-05-31T11:55:44Z,42.805,6.029,13.3021,4.60090,2470.6,2022-5-31T13:57:26Z
2022-05-31T11:58:47Z,42.805,6.029,13.3010,4.60062,2470.577,2022-5-31T14:00:30Z
2022-05-31T12:01:50Z,42.805,6.029,13.3017,4.60089,2470.614,2022-5-31T14:03:33Z
2022-05-31T12:04:54Z,42.805,6.029,13.3012,4.60079,2470.577,2022-5-31T14:06:36Z
2022-05-31T12:07:57Z,42.805,6.029,13.3014,4.60085,2470.553,2022-5-31T14:09:39Z
2022-05-31T12:11:00Z,42.805,6.029,13.3013,4.60069,2470.577,2022-5-31T14:12:42Z
2022-05-31T12:14:03Z,42.805,6.029,13.3022,4.60063,2470.577,2022-5-31T14:15:45Z
2022-05-31T12:17:06Z,42.805,6.029,13.3009,4.60061,2470.6,2022-5-31T14:18:48Z
2022-05-31T12:20:09Z,42.805,6.029,13.3015,4.60064,2470.553,2022-5-31T14:21:51Z
2022-05-31T12:23:12Z,42.805,6.029,13.3008,4.60053,2470.591,2022-5-31T14:24:55Z
2022-05-31T12:26:16Z,42.805,6.029,13.3011,4.60064,2470.591,2022-5-31T14:27:58Z
2022-05-31T12:29:19Z,42.805,6.029,13.3018,4.60079,2470.591,2022-5-31T14:31:01Z
2022-05-31T12:32:22Z,42.805,6.029,13.3017,4.60089,2470.577,2022-5-31T14:34:04Z
2022-05-31T12:35:25Z,42.805,6.029,13.3014,4.60078,2470.567,2022-5-31T14:37:07Z
2022-05-31T12:38:28Z,42.805,6.029,13.3014,4.60072,2470.553,2022-5-31T14:40:10Z
2022-05-31T12:41:31Z,42.805,6.029,13.3039,4.60073,2470.577,2022-5-31T14:43:13Z
2022-05-31T12:44:34Z,42.805,6.029,13.3015,4.60072,2470.577,2022-5-31T14:46:16Z
2022-05-31T12:47:37Z,42.805,6.029,13.3011,4.60096,2470.591,2022-5-31T14:49:20Z
2022-05-31T12:50:41Z,42.805,6.029,13.3012,4.60064,2470.591,2022-5-31T14:52:23Z
2022-05-31T12:53:44Z,42.805,6.029,13.3014,4.60086,2470.591,2022-5-31T14:55:26Z
2022-05-31T12:56:47Z,42.805,6.029,13.3012,4.60088,2470.553,2022-5-31T14:58:29Z
2022-05-31T12:59:50Z,42.805,6.029,13.3015,4.60077,2470.567,2022-5-31T15:01:32Z
2022-05-31T13:02:53Z,42.805,6.029,13.3017,4.60074,2470.53,2022-5-31T15:04:35Z
2022-05-31T13:05:56Z,42.805,6.029,13.3022,4.60104,2470.577,2022-5-31T15:07:38Z
2022-05-31T13:08:59Z,42.805,6.029,13.3015,4.60081,2470.553,2022-5-31T15:10:41Z
2022-05-31T13:12:02Z,42.805,6.029,13.3014,4.60097,2470.553,2022-5-31T15:13:45Z
2022-05-31T13:15:06Z,42.805,6.029,13.3023,4.60093,2470.567,2022-5-31T15:16:48Z
2022-05-31T13:18:09Z,42.805,6.029,13.3008,4.60084,2470.53,2022-5-31T15:19:51Z
2022-05-31T13:21:12Z,42.805,6.029,13.3025,4.60074,2470.567,2022-5-31T15:22:54Z
2022-05-31T13:24:15Z,42.805,6.029,13.3023,4.60114,2470.567,2022-5-31T15:25:57Z
2022-05-31T13:27:18Z,42.805,6.029,13.3014,4.60069,2470.553,2022-5-31T15:29:00Z
2022-05-31T13:30:21Z,42.805,6.029,13.3019,4.60073,2470.553,2022-5-31T15:32:03Z
2022-05-31T13:33:24Z,42.805,6.029,13.3010,4.60064,2470.553,2022-5-31T15:35:06Z
2022-05-31T13:36:27Z,42.805,6.029,13.3022,4.60067,2470.567,2022-5-31T15:38:10Z
2022-05-31T13:39:31Z,42.805,6.029,13.3019,4.60081,2470.577,2022-5-31T15:41:13Z
2022-05-31T13:42:34Z,42.805,6.029,13.3026,4.60092,2470.567,2022-5-31T15:44:16Z
2022-05-31T13:45:37Z,42.805,6.029,13.3015,4.60092,2470.553,2022-5-31T15:47:19Z
2022-05-31T13:48:40Z,42.805,6.029,13.3017,4.60074,2470.553,2022-5-31T15:50:22Z
2022-05-31T13:51:43Z,42.805,6.029,13.3021,4.60092,2470.553,2022-5-31T15:53:25Z
2022-05-31T13:54:46Z,42.805,6.029,13.3018,4.60098,2470.567,2022-5-31T15:56:28Z
2022-05-31T13:57:49Z,42.805,6.029,13.3018,4.60089,2470.53,2022-5-31T15:59:31Z
2022-05-31T14:00:52Z,42.805,6.029,13.3014,4.60079,2470.567,2022-5-31T16:02:35Z
2022-05-31T14:03:56Z,42.805,6.029,13.3014,4.60087,2470.553,2022-5-31T16:05:38Z
2022-05-31T14:06:59Z,42.805,6.029,13.3010,4.60076,2470.53,2022-5-31T16:08:41Z
2022-05-31T14:10:02Z,42.805,6.029,13.3014,4.60092,2470.591,2022-5-31T16:11:44Z
2022-05-31T14:13:05Z,42.805,6.029,13.3018,4.60092,2470.544,2022-5-31T16:14:47Z
2022-05-31T14:16:08Z,42.805,6.029,13.3021,4.60094,2470.567,2022-5-31T16:17:50Z
2022-05-31T14:19:11Z,42.805,6.029,13.3025,4.60107,2470.553,2022-5-31T16:20:53Z
2022-05-31T14:22:14Z,42.805,6.029,13.3014,4.60097,2470.553,2022-5-31T16:23:56Z
2022-05-31T14:25:17Z,42.805,6.029,13.3016,4.60070,2470.53,2022-5-31T16:27:00Z
2022-05-31T14:28:21Z,42.805,6.029,13.3020,4.60084,2470.553,2022-5-31T16:30:03Z
2022-05-31T14:31:24Z,42.805,6.029,13.3016,4.60092,2470.553,2022-5-31T16:33:06Z
2022-05-31T14:34:27Z,42.805,6.029,13.3020,4.60087,2470.577,2022-5-31T16:36:09Z
2022-05-31T14:37:30Z,42.805,6.029,13.3023,4.60087,2470.567,2022-5-31T16:39:12Z
2022-05-31T14:40:33Z,42.805,6.029,13.3017,4.60087,2470.553,2022-5-31T16:42:15Z
2022-05-31T14:43:36Z,42.805,6.029,13.3020,4.60099,2470.567,2022-5-31T16:45:18Z
2022-05-31T14:46:39Z,42.805,6.029,13.3017,4.60070,2470.544,2022-5-31T16:48:21Z
2022-05-31T14:49:42Z,42.805,6.029,13.3021,4.60091,2470.53,2022-5-31T16:51:25Z
2022-05-31T14:52:46Z,42.805,6.029,13.3023,4.60099,2470.567,2022-5-31T16:54:28Z
2022-05-31T14:55:49Z,42.805,6.029,13.3022,4.60122,2470.567,2022-5-31T16:57:31Z
2022-05-31T14:58:52Z,42.805,6.029,13.3019,4.60084,2470.558,2022-5-31T17:00:34Z
2022-05-31T15:01:55Z,42.805,6.029,13.3016,4.60092,2470.53,2022-5-31T17:03:37Z
2022-05-31T15:04:58Z,42.805,6.029,13.3030,4.60096,2470.53,2022-5-31T17:06:40Z
2022-05-31T15:08:01Z,42.805,6.029,13.3015,4.60087,2470.553,2022-5-31T17:09:43Z
2022-05-31T15:11:04Z,42.805,6.029,13.3028,4.60087,2470.53,2022-5-31T17:12:47Z
2022-05-31T15:14:07Z,42.805,6.029,13.3020,4.60084,2470.591,2022-5-31T17:15:50Z